Regional Weather Roundup
Issued by NWS Sioux Falls, SD

Home | Current Version | Previous Version | Text Only | Print | Product List | Glossary On
Versions: 1 2 3 4 5 6 7 8 9 10 11 12 13 14 15 16 17 18 19 20 21 22 23 24 25 26 27 28 29 30 31 32 33 34 35 36 37 38 39 40 41 42 43 44 45 46 47 48 49 50
000
ASUS43 KFSD 250910
RWRFSD

WEATHER ROUNDUP FOR SE SOUTH DAKOTA/SW MINNESOTA/NW IOWA
NATIONAL WEATHER SERVICE SIOUX FALLS SD
400 AM CDT MON MAY 25 2015

NOTE: "FAIR" INDICATES FEW OR NO CLOUDS BELOW 12,000 FEET WITH NO
SIGNIFICANT WEATHER AND OR OBSTRUCTIONS TO VISIBILITY.


SDZ038>040-050-052>070-251000-
SOUTHEAST SOUTH DAKOTA

CITY           SKY/WX    TMP DP  RH WIND       PRES   REMARKS
BROOKINGS      CLOUDY    55  55 100 NW3       29.74S
CHAMBERLAIN    CLOUDY    57  57  99 CALM      29.76F FOG
HURON          CLOUDY    57  57 100 N3        29.75S
MADISON        CLOUDY    55  55 100 NW5       29.75S FOG
MITCHELL       CLOUDY    59  58  96 N6        29.75F FOG
SIOUX FALLS    CLOUDY    59  57  93 W3        29.74R
WINNER         FOG       59  57  93 NE5       29.76F VSB 1/4
YANKTON        CLOUDY    59  57  94 NW5       29.72F
$$

MNZ071-072-080-081-089-090-097-098-251000-
SOUTHWEST MINNESOTA

CITY           SKY/WX    TMP DP  RH WIND       PRES   REMARKS
FAIRMONT       CLOUDY    61  55  82 SW8       29.70S
JACKSON        CLOUDY    59  59 100 W6        29.71F FOG
LUVERNE        CLOUDY    59  55  88 NW5       29.73S FOG
MARSHALL       CLOUDY    57  54  88 NW7       29.70F
MONTEVIDEO     RAIN      57  57 100 NE5       29.72S
PIPESTONE      CLOUDY    57  55  94 NW6       29.72F
REDWOOD FALLS  CLOUDY    58  57  97 CALM      29.68F FOG
TRACY          FOG       58  57  99 NW5       29.71S VSB 1/2
WINDOM         FOG       57  57 100 W6        29.70F VSB 3/4
WORTHINGTON    CLOUDY    57  55  94 NW7       29.72F VSB 1
$$

IAZ001>003-012>014-020>022-031-032-NEZ013-014-SDZ071-251000-
NORTHWEST IOWA

CITY           SKY/WX    TMP DP  RH WIND       PRES   REMARKS
CHEROKEE       CLOUDY    60  60 100 SW6       29.74R FOG
DENISON        CLOUDY    63  63 100 SW7       29.74R
ESTHERVILLE    CLOUDY    60  59  96 SW12      29.70S
LE MARS        CLOUDY    61  61 100 CALM      29.75S
ORANGE CITY    CLOUDY    57  57 100 SW7       29.74S FOG
SHELDON        FOG       59  57  94 W7        29.72S VSB 1/2
SIOUX CITY     CLOUDY    61  58  90 W6        29.74F
SPENCER        CLOUDY    61  60  97 SW12      29.72S FOG
STORM LAKE     CLOUDY    59  59 100 W8        29.75R FOG
$$

ABBREVIATIONS USED IN REMARKS
   TC - TEMPERATURE IN CELSIUS
  WCI - WIND CHILL INDEX
   HX - HEAT INDEX
  VSB - VISIBILITY




USA.gov is the U.S. government's official web portal to all federal, state and local government web resources and services.